[[{"header":{"parameterUnit":"m.s-1","parameterCategory":1,"la1":30.2991,"la2":30.254,"lo1":-89.0895,"lo2":-89.0444,"dy":0.0017,"dx":0.0017,"nx":28,"ny":28,"refTime":"2026-01-29T03:00:00:Z","depth":0,"parameterNumber":2,"parameterNumberName":"U-component_of_WINDS"},"data":[0,0,0,0,0,0,0,0,0,0,0,0,0,0,0,0,0,0,0,0,0,0,0,0,0,0,0,0,0,0,0,0,0,0,0,0,0,0,0,0,0,0,0,0,0,0,0,0,0,0,0,0,0,0,0,0,0,0,-0.1915,-0.1915,0,-0.1911,-0.1911,-0.1911,-0.1937,-0.1938,-0.1938,-0.1939,-0.1932,-0.1931,-0.193,0,0,0,0,0,0,0,0,0,0,0,0,0,-0.1941,-0.194,-0.1915,-0.1915,-0.1915,-0.1911,-0.1911,-0.1911,-0.1937,-0.1938,-0.1938,-0.1939,-0.1932,-0.1931,-0.193,0,0,0,0,0,0,0,0,0,0,0,0,0,-0.1933,-0.194,-0.1915,-0.1927,-0.1928,-0.1911,-0.1911,-0.1911,-0.1936,-0.1938,-0.1939,-0.194,-0.1932,-0.1931,-0.193,-0.1899,0,0,-0.1926,-0.1925,0,0,0,0,0,0,0,0,-0.1933,-0.1932,-0.1925,-0.1926,-0.1928,-0.1926,-0.1917,-0.1907,-0.1936,-0.1933,-0.1939,-0.194,-0.1928,-0.1927,-0.1924,-0.1899,-0.1898,-0.1925,-0.1925,-0.1924,-0.1924,0,0,0,0,0,0,0,-0.1934,-0.1932,-0.1913,-0.1925,-0.1927,-0.1932,-0.1932,-0.1916,-0.1925,-0.1934,-0.1935,-0.1935,-0.1929,-0.1925,-0.1924,-0.1898,-0.1925,-0.1924,-0.1923,-0.1923,-0.1846,-0.1844,0,0,0,0,0,0,-0.1933,-0.1932,-0.1913,-0.1913,-0.1933,-0.193,-0.1931,-0.1925,-0.1925,-0.1926,-0.1934,-0.1936,-0.1927,-0.1926,-0.1924,-0.1887,-0.1924,-0.1923,-0.1922,-0.1847,-0.1845,-0.1844,0,0,0,0,0,0,-0.1933,-0.1931,-0.1914,-0.1923,-0.1921,-0.1929,-0.1922,-0.1924,-0.1921,-0.1925,-0.1926,-0.1929,-0.1928,-0.1926,-0.1905,-0.1887,-0.1922,-0.1921,-0.1848,-0.1846,-0.1845,-0.1813,0,0,0,0,0,0,-0.1934,-0.1931,-0.192,-0.1923,-0.1921,-0.1895,-0.1921,-0.1923,-0.1919,-0.1921,-0.1921,-0.1921,-0.1929,-0.1907,-0.1904,-0.1886,-0.192,-0.185,-0.1847,-0.1845,-0.1815,-0.181,-0.1805,0,0,0,0,0,-0.1935,-0.1911,-0.192,-0.1917,-0.1908,-0.1894,-0.1893,-0.1903,-0.1917,-0.1906,-0.1908,-0.1921,-0.189,-0.1904,-0.1901,-0.1882,-0.1851,-0.1848,-0.1845,-0.1818,-0.1811,-0.1805,0,0,0,0,0,0,-0.1905,-0.1912,-0.1921,-0.1898,-0.1896,-0.1899,-0.1885,-0.1896,-0.1889,-0.1891,-0.1903,-0.1903,-0.1879,-0.1879,-0.1895,-0.1852,-0.1873,-0.1869,-0.1853,-0.1846,-0.1842,-0.1841,-0.1919,0,0,0,0,0,-0.1897,-0.1886,-0.1892,-0.1871,-0.1869,-0.1877,-0.1872,-0.188,-0.1877,-0.1876,-0.1877,-0.1873,-0.1862,-0.1855,-0.1845,-0.1816,-0.1815,-0.1802,-0.1797,-0.1792,-0.1788,-0.1771,-0.1764,-0.1835,-0.1835,-0.1835,0,0,-0.1877,-0.188,-0.1872,-0.1865,-0.1864,-0.1851,-0.1876,-0.1862,-0.1853,-0.1873,-0.1853,-0.1854,-0.185,-0.1825,-0.1814,-0.1824,-0.1769,-0.1789,-0.1785,-0.1784,-0.1767,-0.1761,-0.1755,-0.1833,-0.1833,-0.1833,0,0,-0.1836,-0.1837,-0.1819,-0.1818,-0.1816,-0.1822,-0.1817,-0.1819,-0.182,-0.1801,-0.1816,-0.1804,-0.1786,-0.1782,-0.1777,-0.1734,-0.1744,-0.173,-0.1703,-0.1686,-0.168,-0.1676,-0.1658,-0.1651,-0.1727,-0.1727,-0.1727,0,-0.1811,-0.1795,-0.1808,-0.1793,-0.1788,-0.1808,-0.1788,-0.1786,-0.1781,-0.1777,-0.1789,-0.1765,-0.1764,-0.1737,-0.1726,-0.1723,-0.1716,-0.173,-0.1681,-0.1676,-0.1671,-0.1654,-0.1648,-0.1725,-0.1725,-0.1725,-0.1725,0,-0.1764,-0.1752,-0.1737,-0.1733,-0.1727,-0.171,-0.1719,-0.1711,-0.1719,-0.1723,-0.1702,-0.1701,-0.1691,-0.1686,-0.1694,-0.1659,-0.1665,-0.1679,-0.1699,-0.1662,-0.1647,-0.164,-0.1722,-0.1723,-0.1723,-0.1724,0,0,-0.1703,-0.1706,-0.17,-0.1697,-0.1697,-0.1687,-0.1671,-0.1662,-0.1653,-0.165,-0.1634,-0.1618,-0.163,-0.1625,-0.1633,-0.1618,-0.1581,-0.1633,-0.1633,-0.1622,-0.154,-0.1528,-0.152,-0.1589,-0.1588,-0.1587,-0.1539,0,-0.166,-0.1632,-0.1643,-0.1614,-0.1602,-0.162,-0.1605,-0.1603,-0.1606,-0.1595,-0.1598,-0.1585,-0.1604,-0.16,-0.1587,-0.1588,-0.1564,-0.1592,-0.1572,-0.1572,-0.1571,-0.1513,-0.15,-0.1455,-0.1534,-0.1533,-0.1532,0,-0.1607,-0.1601,-0.1571,-0.1572,-0.1567,-0.1553,-0.1545,-0.1535,-0.1532,-0.1535,-0.1529,-0.154,-0.1522,-0.1544,-0.1518,-0.1536,-0.1529,-0.1528,-0.1527,-0.1524,-0.1548,-0.1505,-0.1442,-0.1434,-0.1523,-0.1524,-0.1524,0,-0.1562,-0.1547,-0.1527,-0.1524,-0.1525,-0.1515,-0.1515,-0.1513,-0.1506,-0.1499,-0.1494,-0.1485,-0.1479,-0.147,-0.1477,-0.1493,-0.1449,-0.1472,-0.1449,-0.1448,-0.1437,-0.1437,-0.1368,-0.1436,-0.1436,-0.1436,-0.1436,0,-0.1512,-0.1492,-0.1506,-0.1493,-0.1471,-0.1484,-0.1461,-0.1462,-0.146,-0.1447,-0.1462,-0.1449,-0.146,-0.1447,-0.1453,-0.1428,-0.1426,-0.1427,-0.1428,-0.1424,-0.1423,-0.1417,-0.142,-0.1434,-0.1435,-0.1435,-0.1435,0,-0.1458,-0.1467,-0.1445,-0.1448,-0.1449,-0.1432,-0.1433,-0.1421,-0.1425,-0.1407,-0.1404,-0.141,-0.1396,-0.1403,-0.1387,-0.1391,-0.1359,-0.1366,-0.136,-0.1361,-0.1336,-0.1337,-0.1259,-0.1249,-0.1325,-0.1325,-0.1324,0,-0.1424,-0.141,-0.1411,-0.1404,-0.1403,-0.1391,-0.1384,-0.1396,-0.1388,-0.1383,-0.137,-0.1357,-0.1347,-0.1323,-0.1325,-0.1313,-0.1318,-0.1291,-0.1316,-0.1312,-0.1314,-0.1314,-0.1311,-0.1285,-0.1285,-0.1284,-0.1283,0,-0.1363,-0.1368,-0.1359,-0.1351,-0.1343,-0.1337,-0.1332,-0.1325,-0.1336,-0.1326,-0.1312,-0.1305,-0.1289,-0.1275,-0.1264,-0.1262,-0.1273,-0.1276,-0.1269,-0.1264,-0.126,-0.1259,-0.1344,-0.1277,-0.1278,-0.1278,-0.1279,-0.1279,-0.1317,-0.1304,-0.1302,-0.1291,-0.1289,-0.1284,-0.1271,-0.1275,-0.1263,-0.1252,-0.126,-0.1243,-0.1238,-0.1225,-0.1222,-0.1207,-0.1217,-0.1208,-0.1206,-0.1203,-0.1198,-0.1265,-0.1205,-0.1206,-0.1206,-0.1206,-0.1206,0,-0.1254,-0.1255,-0.1244,-0.1237,-0.1228,-0.1242,-0.1236,-0.1227,-0.1212,-0.1208,-0.1198,-0.1181,-0.1167,-0.1168,-0.1155,-0.1143,-0.1148,-0.1139,-0.1139,-0.1138,-0.1191,-0.1197,-0.1135,-0.1135,-0.1135,-0.1136,-0.1136,-0.1136,-0.122,-0.1198,-0.1203,-0.118,-0.118,-0.1164,-0.116,-0.1154,-0.1151,-0.1131,-0.112,-0.1122,-0.1119,-0.1106,-0.1093,-0.1094,-0.1087,-0.1076,-0.1078,-0.1127,-0.1134,-0.1141,-0.1146,-0.1075,-0.1075,-0.1026,-0.1025,-0.1025]},{"header":{"parameterUnit":"m.s-1","parameterCategory":1,"la1":30.2991,"la2":30.254,"lo1":-89.0895,"lo2":-89.0444,"dy":0.0017,"dx":0.0017,"nx":28,"ny":28,"refTime":"2026-01-29T03:00:00:Z","depth":0,"parameterNumber":3,"parameterNumberName":"V-component_of_WINDS"},"data":[0,0,0,0,0,0,0,0,0,0,0,0,0,0,0,0,0,0,0,0,0,0,0,0,0,0,0,0,0,0,0,0,0,0,0,0,0,0,0,0,0,0,0,0,0,0,0,0,0,0,0,0,0,0,0,0,0,0,0.0297,0.0295,0,0.0163,0.0162,0.016,0.0094,0.0094,0.0094,0.0095,-0.0048,-0.0052,-0.0056,0,0,0,0,0,0,0,0,0,0,0,0,0,0.0489,0.0486,0.0297,0.0295,0.0293,0.0163,0.0161,0.016,0.0094,0.0094,0.0094,0.0095,-0.0047,-0.0051,-0.0056,0,0,0,0,0,0,0,0,0,0,0,0,0,0.0385,0.0485,0.0297,0.0245,0.0239,0.0164,0.0161,0.0159,0.0094,0.0094,0.0094,0.0095,-0.0045,-0.0051,-0.0056,-0.0093,0,0,-0.0074,-0.0076,0,0,0,0,0,0,0,0,0.0391,0.0378,0.0255,0.0249,0.0242,0.0146,0.0177,0.0074,0.0094,0.0149,0.0095,0.0095,0.0016,0.0005,-0.002,-0.0099,-0.0105,-0.0075,-0.0078,-0.008,-0.0082,0,0,0,0,0,0,0,0.0399,0.0384,0.0244,0.0253,0.0245,0.0227,0.0212,0.0157,0.0084,0.0145,0.0139,0.0125,0.0012,-0.0014,-0.0024,-0.0108,-0.0074,-0.0079,-0.0083,-0.0085,-0.0226,-0.0226,0,0,0,0,0,0,0.0415,0.039,0.0248,0.024,0.0319,0.0223,0.0207,0.0176,0.0084,0.007,0.0125,0.0122,-0.0005,-0.0017,-0.0029,-0.0079,-0.008,-0.0086,-0.0089,-0.0225,-0.0226,-0.0226,0,0,0,0,0,0,0.042,0.0403,0.0253,0.0314,0.0293,0.022,0.0186,0.0174,0.0147,0.007,0.0056,0.0111,-0.0005,-0.0021,-0.0076,-0.0085,-0.0088,-0.0094,-0.0225,-0.0225,-0.0226,-0.0177,0,0,0,0,0,0,0.0425,0.0405,0.0392,0.0314,0.029,0.0211,0.0186,0.0171,0.0138,0.0133,0.0053,0.004,-0.0006,-0.0068,-0.0082,-0.0093,-0.0098,-0.0225,-0.0225,-0.0226,-0.0178,-0.0176,-0.0174,0,0,0,0,0,0.0432,0.041,0.0392,0.0375,0.0273,0.021,0.0196,0.0145,0.0138,0.0123,0.0073,0.0042,-0.0081,-0.0073,-0.009,-0.0102,-0.0224,-0.0225,-0.0226,-0.0179,-0.0176,-0.0174,0,0,0,0,0,0,0.0488,0.0399,0.0378,0.033,0.0278,0.0199,0.0179,0.015,0.0099,0.0096,0.0033,0.0015,-0.0035,-0.0074,-0.0063,-0.0143,-0.0156,-0.016,-0.0115,-0.0113,-0.011,-0.01,-0.0103,0,0,0,0,0,0.0495,0.0454,0.0377,0.0342,0.0318,0.0253,0.0224,0.0189,0.0132,0.011,0.0056,-0.0,-0.0052,-0.0085,-0.0136,-0.0185,-0.0204,-0.0202,-0.0199,-0.0197,-0.02,-0.023,-0.0231,-0.0228,-0.0228,-0.0228,0,0,0.0508,0.0455,0.0432,0.0352,0.0308,0.0264,0.0235,0.0191,0.0157,0.0102,0.0047,0.0005,-0.0061,-0.0113,-0.0139,-0.0148,-0.0205,-0.0198,-0.0195,-0.02,-0.0231,-0.0231,-0.0231,-0.0229,-0.0228,-0.0228,0,0,0.0511,0.0467,0.0432,0.0389,0.0323,0.028,0.0272,0.0197,0.0168,0.0112,0.0069,0.0027,-0.006,-0.0106,-0.0141,-0.0157,-0.0188,-0.0173,-0.0161,-0.019,-0.019,-0.019,-0.0197,-0.0199,-0.0175,-0.0175,-0.0175,0,0.0535,0.047,0.0418,0.0376,0.0341,0.0291,0.0254,0.0214,0.0134,0.011,0.0101,-0.001,-0.0058,-0.0122,-0.0126,-0.0153,-0.0166,-0.0164,-0.0185,-0.0186,-0.0188,-0.0195,-0.0198,-0.0173,-0.0173,-0.0174,-0.0174,0,0.0503,0.0458,0.0438,0.0364,0.0326,0.0287,0.0227,0.0195,0.0163,0.012,0.0062,0.0003,-0.0063,-0.0081,-0.0113,-0.015,-0.0154,-0.0173,-0.0187,-0.0185,-0.0193,-0.0196,-0.017,-0.0171,-0.0171,-0.0172,0,0,0.0537,0.0434,0.0427,0.0393,0.0316,0.0279,0.0236,0.0174,0.0147,0.0093,0.0054,-0.0019,-0.0037,-0.0076,-0.0115,-0.014,-0.0151,-0.0156,-0.0159,-0.0154,-0.0198,-0.0183,-0.0185,-0.0171,-0.0172,-0.0173,-0.0192,0,0.0528,0.0452,0.0403,0.0345,0.0302,0.0253,0.0216,0.0163,0.0122,0.0077,0.003,-0.0021,-0.0041,-0.0065,-0.0092,-0.0143,-0.016,-0.0143,-0.021,-0.0212,-0.0192,-0.019,-0.0174,-0.019,-0.0196,-0.0196,-0.0197,0,0.0507,0.0456,0.0395,0.0322,0.0302,0.027,0.0208,0.0167,0.0105,0.0076,0.0032,-0.0007,-0.0056,-0.0066,-0.0137,-0.0124,-0.0154,-0.0184,-0.0186,-0.0195,-0.0204,-0.0199,-0.0196,-0.0198,-0.0202,-0.0202,-0.0201,0,0.0537,0.0453,0.0405,0.0377,0.0291,0.0269,0.0231,0.017,0.0135,0.008,0.0057,-0.0004,-0.0037,-0.0084,-0.0139,-0.0141,-0.0205,-0.0219,-0.0232,-0.023,-0.0243,-0.0242,-0.0245,-0.0262,-0.0262,-0.0262,-0.0262,0,0.0532,0.0496,0.0417,0.0388,0.0345,0.0289,0.0247,0.0205,0.0151,0.0111,0.0064,0.0026,-0.0043,-0.009,-0.0134,-0.0187,-0.0201,-0.0228,-0.0239,-0.0224,-0.022,-0.0245,-0.0246,-0.0262,-0.0262,-0.0262,-0.0262,0,0.0558,0.0505,0.0449,0.0372,0.0352,0.0324,0.0257,0.0225,0.0181,0.013,0.0115,0.0045,-0.0013,-0.0072,-0.0151,-0.0181,-0.0232,-0.0247,-0.021,-0.0217,-0.0227,-0.0225,-0.0247,-0.0253,-0.0264,-0.0264,-0.0264,0,0.0559,0.053,0.0451,0.0421,0.0386,0.0339,0.0303,0.0245,0.021,0.0137,0.0113,0.0053,0.0001,-0.0089,-0.0149,-0.021,-0.0227,-0.0231,-0.0237,-0.0221,-0.0229,-0.0226,-0.023,-0.0228,-0.0228,-0.0228,-0.0227,0,0.0564,0.0539,0.0491,0.0434,0.0393,0.0344,0.0294,0.0272,0.0203,0.0165,0.0107,0.0067,-0.0013,-0.0073,-0.0141,-0.0183,-0.0218,-0.0225,-0.0231,-0.0216,-0.0194,-0.0207,-0.0205,-0.0224,-0.0225,-0.0225,-0.0225,-0.0225,0.0577,0.0549,0.0489,0.0436,0.0392,0.0346,0.0312,0.0264,0.0215,0.0147,0.0115,0.0056,-0.0008,-0.0102,-0.0143,-0.0192,-0.0202,-0.0211,-0.0213,-0.0215,-0.0211,-0.0186,-0.0205,-0.0205,-0.0205,-0.0205,-0.0205,0,0.0579,0.0538,0.0491,0.0422,0.038,0.0354,0.0296,0.0262,0.0211,0.0156,0.0107,0.0038,-0.0021,-0.0085,-0.0149,-0.0176,-0.0194,-0.0191,-0.019,-0.0199,-0.0199,-0.0187,-0.0176,-0.0176,-0.0176,-0.0176,-0.0176,-0.0176,0.0576,0.0527,0.0494,0.0422,0.038,0.0324,0.0293,0.0248,0.0204,0.0131,0.0082,0.0041,-0.0019,-0.0087,-0.0144,-0.0162,-0.0184,-0.0176,-0.0199,-0.0197,-0.0199,-0.0201,-0.0191,-0.018,-0.018,-0.0196,-0.0196,-0.0196]}]]